[[{"header":{"parameterUnit":"m.s-1","parameterCategory":1,"la1":30.2992,"la2":30.254,"lo1":-89.0895,"lo2":-89.0443,"dy":0.0025,"dx":0.0025,"nx":19,"ny":19,"refTime":"2026-04-04T09:00:00:Z","depth":0,"parameterNumber":2,"parameterNumberName":"U-component_of_WINDS"},"data":[0,0,0,1.2779,1.2779,1.2788,1.2788,1.281,1.281,0,0,0,0,0,0,0,0,0,0,0,1.2782,1.2782,1.2779,1.2779,1.2788,1.2788,1.281,1.281,0,0,0,0,0,0,0,0,0,0,0,1.2782,1.2782,1.2782,1.2779,1.2788,1.2788,1.281,1.28,0,0,0,0,0,0,0,0,0,0,1.279,1.2797,1.2782,1.2782,1.2779,1.2788,1.2788,1.2799,1.28,1.2811,0,1.282,0,1.2816,1.2813,1.2813,0,0,0,1.2775,1.2796,1.2794,1.2782,1.2779,1.2788,1.2783,1.28,1.2801,1.2813,1.282,1.2821,1.2816,1.2813,1.2813,1.2884,1.2885,0,0,1.2775,1.2786,1.2793,1.2795,1.2793,1.2783,1.2783,1.28,1.281,1.282,1.2821,1.2817,1.2813,1.2813,1.2884,1.2885,0,0,0,1.2776,1.2786,1.2783,1.2794,1.2795,1.2783,1.2783,1.2809,1.2807,1.2822,1.2817,1.2813,1.2814,1.2883,1.2884,1.2921,0,0,0,1.2776,1.2787,1.2783,1.279,1.2795,1.2802,1.2792,1.2806,1.2808,1.2817,1.2813,1.2814,1.2883,1.2884,1.2919,1.2936,0,0,0,1.2779,1.2787,1.279,1.2791,1.2795,1.2801,1.28,1.2806,1.2805,1.2813,1.2814,1.2882,1.2884,1.2917,1.2933,1.2959,0,0,0,1.2787,1.2822,1.2791,1.2829,1.2795,1.2824,1.28,1.2821,1.2832,1.2813,1.2883,1.2884,1.2916,1.2931,1.2957,1.2984,1.2996,0,0,1.2838,1.2829,1.285,1.2823,1.286,1.2822,1.2865,1.2864,1.2855,1.2876,1.2877,1.292,1.2933,1.2959,1.3059,1.3068,0,0,0,1.287,1.2886,1.2894,1.2905,1.2905,1.2908,1.2899,1.29,1.2917,1.2867,1.2936,1.2943,1.2958,1.297,1.2979,1.2991,1.289,1.289,1.289,1.2958,1.2945,1.298,1.2969,1.298,1.2973,1.2981,1.298,1.2962,1.298,1.2985,1.3047,1.3062,1.3068,1.3081,1.2998,1.2998,1.2998,1.2998,1.3032,1.3053,1.3031,1.3057,1.3044,1.3066,1.3062,1.3049,1.3069,1.3041,1.3054,1.3024,1.3079,1.309,1.3001,1.3001,1.3,1.3,1.3,1.3088,1.3096,1.3096,1.3112,1.3127,1.3115,1.3136,1.3123,1.3111,1.3124,1.3129,1.3129,1.3127,1.3127,1.3128,1.3128,1.3128,1.3128,1.3128,1.3146,1.3145,1.3164,1.317,1.3177,1.3184,1.3179,1.3186,1.319,1.3179,1.3179,1.3162,1.3086,1.3068,1.3132,1.3131,1.3131,1.313,1.313,1.3225,1.3206,1.3235,1.3242,1.3249,1.3266,1.325,1.3266,1.327,1.3282,1.3262,1.3209,1.3198,1.3192,1.3176,1.3264,1.3264,1.3264,1.3264,1.3272,1.3267,1.3295,1.3307,1.3318,1.3308,1.3344,1.3342,1.3337,1.3339,1.3325,1.3304,1.3298,1.3291,1.3282,1.3268,1.3377,1.3377,1.3377,1.3321,1.3316,1.3348,1.3342,1.3348,1.3354,1.3388,1.3405,1.3396,1.3381,1.3341,1.3336,1.3302,1.3291,1.3274,1.3261,1.3234,0,0]},{"header":{"parameterUnit":"m.s-1","parameterCategory":1,"la1":30.2992,"la2":30.254,"lo1":-89.0895,"lo2":-89.0443,"dy":0.0025,"dx":0.0025,"nx":19,"ny":19,"refTime":"2026-04-04T09:00:00:Z","depth":0,"parameterNumber":3,"parameterNumberName":"V-component_of_WINDS"},"data":[0,0,0,3.3064,3.307,3.3323,3.3324,3.3638,3.3641,0,0,0,0,0,0,0,0,0,0,0,3.2981,3.2983,3.3064,3.307,3.3323,3.3324,3.3637,3.3641,0,0,0,0,0,0,0,0,0,0,0,3.298,3.2982,3.2984,3.3071,3.3323,3.3325,3.3637,3.345,0,0,0,0,0,0,0,0,0,0,3.3206,3.3119,3.2982,3.2984,3.3072,3.3323,3.3325,3.3441,3.3462,3.3518,0,3.3564,0,3.3607,3.3661,3.3662,0,0,0,3.3077,3.3102,3.3178,3.2985,3.3075,3.3322,3.3211,3.3453,3.3476,3.3545,3.3569,3.3581,3.3612,3.3663,3.3664,3.3966,3.3967,0,0,3.3063,3.3022,3.3162,3.3193,3.3151,3.3203,3.3219,3.3467,3.349,3.357,3.3588,3.3618,3.3665,3.3667,3.3965,3.3966,0,0,0,3.3018,3.3012,3.3082,3.318,3.3226,3.321,3.3228,3.3479,3.3506,3.3592,3.3621,3.3666,3.367,3.3964,3.3966,3.3982,0,0,0,3.301,3.2986,3.3076,3.3053,3.3221,3.3355,3.3235,3.3489,3.3518,3.362,3.3667,3.3673,3.3963,3.3965,3.3979,3.3997,0,0,0,3.2967,3.2981,3.3015,3.3051,3.3158,3.3352,3.3393,3.3496,3.3536,3.3662,3.3674,3.3962,3.3965,3.3976,3.3993,3.4067,0,0,0,3.291,3.3023,3.3014,3.3153,3.3156,3.3359,3.3392,3.3546,3.3656,3.3668,3.3963,3.3966,3.3975,3.399,3.4064,3.4124,3.4144,0,0,3.3031,3.3036,3.3122,3.3121,3.3316,3.3324,3.3523,3.3662,3.3712,3.3879,3.3887,3.398,3.3992,3.4067,3.4269,3.4285,0,0,0,3.3146,3.3207,3.3268,3.3371,3.348,3.3577,3.369,3.3743,3.3887,3.3789,3.4027,3.4036,3.4081,3.4112,3.4125,3.4169,3.3977,3.3977,3.3977,3.3259,3.3317,3.3463,3.3553,3.3652,3.377,3.3857,3.3949,3.3976,3.4032,3.4082,3.4198,3.4232,3.4243,3.4287,3.4117,3.4117,3.4117,3.4117,3.3443,3.3541,3.3577,3.3733,3.3794,3.3926,3.4045,3.4061,3.4195,3.4163,3.4206,3.417,3.4258,3.4301,3.4119,3.4118,3.4118,3.4118,3.4118,3.3526,3.3583,3.3645,3.3803,3.3918,3.4005,3.4133,3.4184,3.4233,3.4275,3.4337,3.4337,3.4346,3.43,3.4301,3.4301,3.4302,3.4302,3.4302,3.3587,3.3657,3.3758,3.3886,3.3961,3.4067,3.4188,3.4264,3.4362,3.4389,3.439,3.4415,3.4255,3.4215,3.4309,3.4308,3.4307,3.4306,3.4306,3.3757,3.3728,3.3883,3.3958,3.4116,3.423,3.4293,3.4445,3.4515,3.4578,3.4594,3.4466,3.4476,3.4466,3.4434,3.4579,3.4579,3.4579,3.4579,3.3828,3.3838,3.4011,3.4129,3.4251,3.4326,3.4504,3.4601,3.4696,3.4745,3.4731,3.4692,3.4678,3.4697,3.4682,3.4653,3.485,3.485,3.485,3.3938,3.3963,3.4103,3.4196,3.4324,3.4433,3.4604,3.474,3.4842,3.4862,3.4785,3.4773,3.4711,3.4686,3.4705,3.468,3.4628,0,0]}]]